TimeMDT,TemperatureF,Dew PointF,Humidity,Sea Level PressureIn,VisibilityMPH,Wind Direction,Wind SpeedMPH,Gust SpeedMPH,PrecipitationIn,Events,Conditions,WindDirDegrees,DateUTC
12:53 AM,66.0,48.9,54,29.98,10.0,WSW,6.9,-,N/A,,Clear,250,2013-09-04 06:53:00
1:53 AM,70.0,48.9,47,29.97,10.0,West,8.1,-,N/A,,Clear,270,2013-09-04 07:53:00
2:53 AM,72.0,48.9,44,29.96,10.0,South,3.5,-,N/A,,Clear,180,2013-09-04 08:53:00
3:53 AM,70.0,50.0,49,29.97,10.0,NW,9.2,-,N/A,,Scattered Clouds,310,2013-09-04 09:53:00
4:53 AM,70.0,48.9,47,29.99,10.0,WNW,9.2,-,0.00,,Partly Cloudy,290,2013-09-04 10:53:00
5:53 AM,70.0,50.0,49,29.99,10.0,SW,4.6,-,N/A,,Mostly Cloudy,220,2013-09-04 11:53:00
6:53 AM,68.0,48.9,50,30.01,10.0,South,4.6,-,N/A,,Clear,170,2013-09-04 12:53:00
7:53 AM,72.0,50.0,46,30.04,10.0,Calm,Calm,-,N/A,,Clear,0,2013-09-04 13:53:00
8:53 AM,75.9,48.9,38,30.05,10.0,East,5.8,-,N/A,,Clear,80,2013-09-04 14:53:00
9:53 AM,79.0,48.9,35,30.04,10.0,Calm,Calm,-,N/A,,Clear,0,2013-09-04 15:53:00
10:53 AM,82.9,48.9,31,30.03,10.0,ESE,6.9,-,N/A,,Clear,110,2013-09-04 16:53:00
11:53 AM,86.0,48.9,28,30.01,10.0,Variable,5.8,-,N/A,,Clear,0,2013-09-04 17:53:00
12:53 PM,88.0,48.0,25,30.00,10.0,Variable,3.5,-,N/A,,Clear,0,2013-09-04 18:53:00
1:53 PM,89.1,48.0,24,29.97,10.0,Variable,4.6,-,N/A,,Partly Cloudy,0,2013-09-04 19:53:00
2:53 PM,91.9,48.0,22,29.95,10.0,ENE,4.6,-,N/A,,Clear,70,2013-09-04 20:53:00
3:53 PM,93.0,48.0,21,29.94,10.0,North,9.2,-,N/A,,Clear,360,2013-09-04 21:53:00
4:53 PM,91.9,48.0,22,29.94,10.0,NE,8.1,17.3,N/A,,Clear,50,2013-09-04 22:53:00
5:53 PM,86.0,48.9,28,29.95,10.0,NNW,15.0,25.3,N/A,,Clear,330,2013-09-04 23:53:00
6:53 PM,84.0,50.0,31,29.96,10.0,NW,15.0,-,N/A,,Clear,320,2013-09-05 00:53:00
7:53 PM,82.0,50.0,33,29.98,10.0,NW,11.5,-,N/A,,Overcast,320,2013-09-05 01:53:00
8:53 PM,80.1,50.0,35,30.00,10.0,NNW,10.4,-,N/A,,Partly Cloudy,330,2013-09-05 02:53:00
9:53 PM,78.1,51.1,39,30.02,10.0,NNW,9.2,-,N/A,,Clear,340,2013-09-05 03:53:00
10:53 PM,75.9,51.1,42,30.01,10.0,NNW,8.1,17.3,N/A,,Clear,330,2013-09-05 04:53:00
11:53 PM,73.0,52.0,48,30.00,10.0,NNW,6.9,-,N/A,,Clear,330,2013-09-05 05:53:00